Location: Lancaster
(34.6980°N, 118.1360°W)
Time: 19:13:53
(UTC-07:00)

Envisat - Visible Passes

Search period start: 20 July 2018 00:00
Search period end: 30 July 2018 00:00
Orbit: 764 x 766 km, 98.2° (Epoch: 20 July)

Date Brightness Start Highest point End Pass type
(mag) Time Alt. Az. Time Alt. Az. Time Alt. Az.
20 Jul 5.7 21:28:51 10° WSW 21:31:24 14° W 21:33:58 10° WNW visible
21 Jul 4.7 20:49:52 10° SSW 20:54:25 33° W 20:59:00 10° NNW visible
23 Jul 5.6 21:16:44 10° SW 21:20:08 18° W 21:23:35 10° NW visible
24 Jul 4.2 20:38:25 10° S 20:43:13 43° W 20:48:02 10° NNW visible
26 Jul 5.2 21:04:55 10° SSW 21:08:53 23° W 21:12:55 10° NW visible
27 Jul 3.8 20:27:03 10° S 20:32:01 56° W 20:37:01 10° NNW visible
28 Jul 5.8 21:32:38 10° WSW 21:34:41 12° W 21:36:44 10° WNW visible
29 Jul 4.9 20:53:16 10° SSW 20:57:40 30° W 21:02:06 10° NW visible
